• In Latvia
  • List of Countries
  • For 7 days
  • Water Temperature
  • Satellite Maps
  • Weather Map
  • Weather Widgets
  • user-avatar
    Login

    Hourly Weather Viedma

    Today, 20 September, Thursday

    Time Temperature Precipitation Wind Pressure Humidity
    00:00 +9°C° 0 mm 2 mps 755 mmHg 72%
    01:00 +9°C° 0 mm 3 mps 755 mmHg 70%
    02:00 +9°C° 0 mm 3 mps 755 mmHg 70%
    03:00 +8°C° 0 mm 4 mps 754 mmHg 67%
    04:00 +8°C° 0 mm 4 mps 754 mmHg 63%
    05:00 +8°C° 0 mm 5 mps 754 mmHg 60%
    06:00 +9°C° 0 mm 6 mps 754 mmHg 59%
    07:00 +11°C° 0 mm 6 mps 754 mmHg 57%
    08:00 +12°C° 0 mm 7 mps 754 mmHg 56%
    09:00 +13°C° 0 mm 8 mps 754 mmHg 50%
    10:00 +16°C° 0 mm 9 mps 753 mmHg 45%
    11:00 +18°C° 0 mm 10 mps 753 mmHg 39%
    12:00 +19°C° 0 mm 10 mps 752 mmHg 37%
    13:00 +21°C° 0 mm 10 mps 752 mmHg 35%
    14:00 +22°C° 0 mm 10 mps 751 mmHg 33%
    15:00 +21°C° 0 mm 9 mps 751 mmHg 35%
    16:00 +20°C° 0 mm 8 mps 751 mmHg 37%
    17:00 +20°C° 0 mm 6 mps 750 mmHg 40%
    18:00 +18°C° 0 mm 7 mps 750 mmHg 42%
    19:00 +17°C° 0 mm 8 mps 750 mmHg 45%
    20:00 +16°C° 0 mm 9 mps 750 mmHg 47%
    21:00 +16°C° 0 mm 9 mps 750 mmHg 48%
    22:00 +16°C° 0 mm 10 mps 750 mmHg 49%
    23:00 +16°C° 0 mm 10 mps 750 mmHg 50%

    Tomorrow, 21 September, Friday

    Time Temperature Precipitation Wind Pressure Humidity
    00:00 +16°C° 0 mm 10 mps 750 mmHg 47%
    01:00 +16°C° 0 mm 10 mps 750 mmHg 44%
    02:00 +15°C° 0 mm 9 mps 751 mmHg 40%
    03:00 +15°C° 0 mm 9 mps 751 mmHg 41%
    04:00 +15°C° 0 mm 9 mps 751 mmHg 42%
    05:00 +15°C° 0 mm 9 mps 751 mmHg 44%
    06:00 +15°C° 0 mm 9 mps 751 mmHg 45%
    07:00 +15°C° 0 mm 9 mps 752 mmHg 46%
    08:00 +15°C° 0 mm 9 mps 752 mmHg 47%
    09:00 +16°C° 0 mm 9 mps 752 mmHg 44%
    10:00 +17°C° 0 mm 10 mps 752 mmHg 41%
    11:00 +18°C° 0 mm 10 mps 753 mmHg 38%
    12:00 +19°C° 0 mm 10 mps 752 mmHg 38%
    13:00 +19°C° 0 mm 9 mps 752 mmHg 37%
    14:00 +19°C° 0 mm 9 mps 752 mmHg 36%
    15:00 +20°C° 0 mm 8 mps 751 mmHg 40%
    16:00 +19°C° 0 mm 6 mps 751 mmHg 43%
    17:00 +19°C° 0 mm 4 mps 751 mmHg 47%
    18:00 +17°C° 0 mm 4 mps 750 mmHg 51%
    19:00 +16°C° 0 mm 3 mps 750 mmHg 56%
    20:00 +15°C° 0 mm 2 mps 750 mmHg 60%
    21:00 +14°C° 0 mm 3 mps 750 mmHg 60%
    22:00 +14°C° 0 mm 4 mps 749 mmHg 59%
    23:00 +13°C° 0 mm 4 mps 749 mmHg 59%

    Day after tomorrow, 22 September, Saturday

    Time Temperature Precipitation Wind Pressure Humidity
    00:00 +14°C° 0 mm 5 mps 748 mmHg 61%
    01:00 +14°C° 0 mm 6 mps 748 mmHg 63%
    02:00 +15°C° 0 mm 6 mps 747 mmHg 65%
    03:00 +14°C° 0.1 mm 6 mps 747 mmHg 66%
    04:00 +14°C° 0.1 mm 6 mps 747 mmHg 67%
    05:00 +14°C° 0.1 mm 5 mps 746 mmHg 69%
    06:00 +15°C° 0 mm 6 mps 747 mmHg 61%
    07:00 +16°C° 0 mm 8 mps 747 mmHg 54%
    08:00 +17°C° 0 mm 9 mps 747 mmHg 47%
    09:00 +18°C° 0 mm 10 mps 748 mmHg 41%
    10:00 +19°C° 0 mm 11 mps 748 mmHg 35%
    11:00 +19°C° 0 mm 12 mps 748 mmHg 29%
    12:00 +21°C° 0 mm 11 mps 748 mmHg 28%
    13:00 +21°C° 0 mm 11 mps 748 mmHg 27%
    14:00 +22°C° 0 mm 10 mps 748 mmHg 26%
    15:00 +21°C° 0 mm 8 mps 748 mmHg 28%
    16:00 +20°C° 0 mm 7 mps 748 mmHg 31%
    17:00 +20°C° 0 mm 5 mps 749 mmHg 33%
    18:00 +17°C° 0 mm 5 mps 749 mmHg 39%
    19:00 +17°C° 0 mm 4 mps 750 mmHg 44%
    20:00 +14°C° 0 mm 4 mps 751 mmHg 49%
    21:00 +13°C° 0 mm 4 mps 751 mmHg 56%
    22:00 +12°C° 0 mm 3 mps 752 mmHg 62%
    23:00 +11°C° 0 mm 3 mps 752 mmHg 68%

    23 September, Sunday

    Time Temperature Precipitation Wind Pressure Humidity
    00:00 +11°C° 0 mm 3 mps 752 mmHg 69%
    01:00 +10°C° 0 mm 3 mps 752 mmHg 70%
    02:00 +10°C° 0 mm 3 mps 753 mmHg 72%
    03:00 +10°C° 0 mm 3 mps 753 mmHg 74%
    04:00 +9°C° 0 mm 2 mps 753 mmHg 77%
    05:00 +8°C° 0 mm 2 mps 753 mmHg 80%
    06:00 +10°C° 0 mm 3 mps 754 mmHg 74%
    07:00 +11°C° 0 mm 3 mps 754 mmHg 69%
    08:00 +12°C° 0 mm 3 mps 755 mmHg 63%
    09:00 +14°C° 0 mm 4 mps 755 mmHg 54%
    10:00 +16°C° 0 mm 5 mps 755 mmHg 45%
    11:00 +17°C° 0 mm 5 mps 756 mmHg 35%
    12:00 +19°C° 0 mm 6 mps 755 mmHg 33%
    13:00 +18°C° 0 mm 7 mps 755 mmHg 31%
    14:00 +18°C° 0 mm 8 mps 755 mmHg 28%
    15:00 +17°C° 0 mm 7 mps 756 mmHg 30%
    16:00 +17°C° 0 mm 6 mps 756 mmHg 32%
    17:00 +16°C° 0 mm 6 mps 756 mmHg 34%
    18:00 +14°C° 0 mm 5 mps 757 mmHg 38%
    19:00 +13°C° 0 mm 3 mps 757 mmHg 42%
    20:00 +12°C° 0 mm 2 mps 758 mmHg 46%
    21:00 +12°C° 0 mm 2 mps 759 mmHg 47%
    22:00 +12°C° 0 mm 2 mps 759 mmHg 49%
    23:00 +10°C° 0 mm 3 mps 759 mmHg 51%

    24 September, Monday

    Time Temperature Precipitation Wind Pressure Humidity
    00:00 +10°C° 0 mm 3 mps 760 mmHg 52%
    01:00 +10°C° 0 mm 3 mps 760 mmHg 54%
    02:00 +10°C° 0 mm 3 mps 760 mmHg 55%
    03:00 +9°C° 0 mm 3 mps 760 mmHg 57%
    04:00 +9°C° 0 mm 3 mps 761 mmHg 59%
    05:00 +9°C° 0 mm 3 mps 761 mmHg 61%
    06:00 +10°C° 0 mm 3 mps 762 mmHg 57%
    07:00 +11°C° 0 mm 3 mps 762 mmHg 52%
    08:00 +12°C° 0 mm 3 mps 763 mmHg 48%
    09:00 +13°C° 0 mm 3 mps 763 mmHg 42%
    10:00 +14°C° 0 mm 4 mps 763 mmHg 36%
    11:00 +15°C° 0 mm 4 mps 763 mmHg 30%
    12:00 +17°C° 0 mm 4 mps 762 mmHg 29%
    13:00 +18°C° 0 mm 4 mps 762 mmHg 28%
    14:00 +19°C° 0 mm 4 mps 761 mmHg 27%
    15:00 +18°C° 0 mm 3 mps 761 mmHg 29%
    16:00 +18°C° 0 mm 3 mps 760 mmHg 31%
    17:00 +17°C° 0 mm 3 mps 760 mmHg 33%
    18:00 +16°C° 0 mm 3 mps 760 mmHg 39%
    19:00 +13°C° 0 mm 4 mps 760 mmHg 44%
    20:00 +12°C° 0 mm 4 mps 760 mmHg 49%
    21:00 +12°C° 0 mm 4 mps 760 mmHg 50%
    22:00 +12°C° 0 mm 5 mps 759 mmHg 51%
    23:00 +10°C° 0 mm 6 mps 759 mmHg 52%

    25 September, Tuesday

    Time Temperature Precipitation Wind Pressure Humidity
    00:00 +10°C° 0 mm 6 mps 759 mmHg 54%
    01:00 +10°C° 0 mm 6 mps 758 mmHg 56%
    02:00 +10°C° 0 mm 6 mps 758 mmHg 59%
    03:00 +11°C° 0 mm 6 mps 758 mmHg 56%
    04:00 +11°C° 0 mm 6 mps 757 mmHg 53%
    05:00 +13°C° 0 mm 5 mps 757 mmHg 51%
    06:00 +12°C° 0.4 mm 5 mps 757 mmHg 57%
    07:00 +12°C° 0.4 mm 4 mps 757 mmHg 63%
    08:00 +12°C° 0.4 mm 3 mps 757 mmHg 69%
    09:00 +13°C° 0.9 mm 4 mps 757 mmHg 68%
    10:00 +14°C° 0.9 mm 4 mps 756 mmHg 66%
    11:00 +15°C° 0.9 mm 4 mps 756 mmHg 65%
    12:00 +17°C° 0.1 mm 4 mps 755 mmHg 61%
    13:00 +18°C° 0.1 mm 3 mps 755 mmHg 58%
    14:00 +19°C° 0.1 mm 3 mps 754 mmHg 54%
    15:00 +18°C° 0 mm 4 mps 754 mmHg 59%
    16:00 +17°C° 0 mm 4 mps 754 mmHg 64%
    17:00 +15°C° 0 mm 5 mps 754 mmHg 69%
    18:00 +14°C° 0 mm 5 mps 755 mmHg 74%
    19:00 +13°C° 0 mm 5 mps 755 mmHg 79%
    20:00 +12°C° 0 mm 5 mps 756 mmHg 84%
    21:00 +10°C° 0 mm 5 mps 756 mmHg 85%
    22:00 +11°C° 0 mm 4 mps 756 mmHg 86%
    23:00 +11°C° 0 mm 4 mps 757 mmHg 87%
    Show more